LNI522 WAHI-WAOO

Flight info

Callsign LNI522
Flight time 1h 11m
Altitude 33000
Route SO W17N PURWO DCT BA DCT SIPUT DCT IKAPI
Aircraft B738/M-SDE2E3FGHIRWXY/LB1

Departure

Time 2026-05-05 14:00
Airport Yogyakarta International Airport (WAHI)

Arrival

Time 2026-05-05 15:11
Airport Syamsudin Noor International Airport (WAOO)
Time Latitude Longitude Altitude Speed Heading
2026-05-05 13:36 -7.90023 110.05625 32 ft 0 kts 20°
2026-05-05 13:49 -7.90045 110.05617 32 ft 4 kts 15°
2026-05-05 13:49 -7.90071 110.05611 32 ft 4 kts
2026-05-05 13:49 -7.90098 110.05612 32 ft 4 kts 340°
2026-05-05 13:50 -7.90114 110.05624 32 ft 2 kts 282°
2026-05-05 13:50 -7.90115 110.05629 32 ft 0 kts 282°
2026-05-05 13:53 -7.90114 110.05620 32 ft 3 kts 282°
2026-05-05 13:53 -7.90105 110.05579 32 ft 7 kts 285°
2026-05-05 13:53 -7.90084 110.05519 32 ft 10 kts 290°
2026-05-05 13:53 -7.90059 110.05450 32 ft 8 kts 290°
2026-05-05 13:54 -7.90040 110.05397 32 ft 10 kts 290°
2026-05-05 13:54 -7.90007 110.05309 32 ft 16 kts 290°
2026-05-05 13:54 -7.89971 110.05210 32 ft 11 kts 290°
2026-05-05 13:54 -7.89962 110.05147 32 ft 9 kts 242°
2026-05-05 13:55 -7.90018 110.05110 32 ft 11 kts 202°
2026-05-05 13:55 -7.90082 110.05083 32 ft 9 kts 218°
2026-05-05 13:55 -7.90095 110.05017 32 ft 9 kts 288°
2026-05-05 13:55 -7.90064 110.04933 32 ft 17 kts 290°
2026-05-05 13:56 -7.90015 110.04796 32 ft 22 kts 290°
2026-05-05 13:56 -7.89960 110.04640 32 ft 21 kts 289°
2026-05-05 13:56 -7.89904 110.04485 32 ft 21 kts 290°
2026-05-05 13:56 -7.89867 110.04384 32 ft 12 kts 290°
2026-05-05 13:57 -7.89846 110.04322 32 ft 6 kts 281°
2026-05-05 13:57 -7.89869 110.04281 32 ft 6 kts 206°
2026-05-05 13:57 -7.89888 110.04278 32 ft 0 kts 177°
2026-05-05 13:58 -7.89890 110.04278 32 ft 2 kts 172°
2026-05-05 13:58 -7.89929 110.04292 32 ft 9 kts 155°
2026-05-05 13:58 -7.89985 110.04320 32 ft 8 kts 154°
2026-05-05 13:58 -7.90027 110.04337 32 ft 5 kts 138°
2026-05-05 13:59 -7.90071 110.04449 32 ft 32 kts 110°
2026-05-05 13:59 -7.90229 110.04891 32 ft 100 kts 109°
2026-05-05 14:00 -7.90913 110.06787 582 ft 169 kts 111°
2026-05-05 14:00 -7.91234 110.07531 977 ft 179 kts 117°
2026-05-05 14:00 -7.92405 110.08676 2105 ft 178 kts 153°
2026-05-05 14:00 -7.93642 110.09045 2601 ft 196 kts 168°
2026-05-05 14:01 -7.95060 110.09178 3057 ft 217 kts 174°
2026-05-05 14:01 -7.96666 110.09249 3391 ft 246 kts 175°
2026-05-05 14:01 -7.98402 110.09312 4198 ft 247 kts 175°
2026-05-05 14:01 -8.00061 110.09384 5587 ft 235 kts 177°
2026-05-05 14:02 -8.01751 110.09464 6346 ft 249 kts 179°
2026-05-05 14:02 -8.03542 110.09531 6975 ft 263 kts 184°
2026-05-05 14:02 -8.05322 110.09124 7634 ft 268 kts 209°
2026-05-05 14:02 -8.06799 110.07952 8343 ft 270 kts 234°
2026-05-05 14:03 -8.07613 110.06290 9173 ft 270 kts 258°
2026-05-05 14:03 -8.07649 110.04374 10018 ft 274 kts 282°
2026-05-05 14:03 -8.06872 110.02608 10793 ft 283 kts 304°
2026-05-05 14:03 -8.05404 110.01246 11358 ft 303 kts 326°
2026-05-05 14:04 -8.03407 110.00350 11732 ft 327 kts 340°
2026-05-05 14:04 -8.01886 109.99991 11960 ft 341 kts 344°
2026-05-05 14:04 -7.99492 109.99426 12268 ft 360 kts 343°
2026-05-05 14:04 -7.96169 109.98656 12713 ft 380 kts 344°
2026-05-05 14:05 -7.94404 109.98248 13090 ft 385 kts 344°
2026-05-05 14:05 -7.91775 109.97665 13745 ft 391 kts 347°
2026-05-05 14:05 -7.88131 109.97780 14586 ft 405 kts
2026-05-05 14:05 -7.86318 109.98397 15002 ft 412 kts 21°
2026-05-05 14:06 -7.83881 109.99957 15591 ft 421 kts 38°
2026-05-05 14:06 -7.81919 110.02171 16168 ft 429 kts 53°
2026-05-05 14:06 -7.80472 110.04790 16725 ft 435 kts 65°
2026-05-05 14:06 -7.79272 110.07637 17287 ft 438 kts 65°
2026-05-05 14:07 -7.78088 110.10455 17807 ft 442 kts 66°
2026-05-05 14:07 -7.76888 110.13332 18325 ft 446 kts 66°
2026-05-05 14:07 -7.75678 110.16228 18833 ft 449 kts 66°
2026-05-05 14:07 -7.74467 110.19128 19303 ft 452 kts 66°
2026-05-05 14:08 -7.73237 110.22071 19765 ft 456 kts 66°
2026-05-05 14:08 -7.71999 110.25033 20226 ft 459 kts 66°
2026-05-05 14:08 -7.70756 110.28002 20667 ft 462 kts 66°
2026-05-05 14:08 -7.69500 110.31003 21090 ft 465 kts 66°
2026-05-05 14:09 -7.68239 110.34015 21504 ft 467 kts 66°
2026-05-05 14:09 -7.66974 110.37044 21900 ft 470 kts 66°
2026-05-05 14:09 -7.65715 110.40055 22279 ft 473 kts 66°
2026-05-05 14:09 -7.64433 110.43120 22652 ft 475 kts 66°
2026-05-05 14:10 -7.63149 110.46192 23009 ft 478 kts 66°
2026-05-05 14:10 -7.61852 110.49295 23358 ft 480 kts 66°
2026-05-05 14:10 -7.60553 110.52398 23692 ft 482 kts 66°
2026-05-05 14:10 -7.59244 110.55522 24014 ft 485 kts 66°
2026-05-05 14:11 -7.57925 110.58667 24326 ft 487 kts 66°
2026-05-05 14:11 -7.56607 110.61811 24627 ft 489 kts 66°
2026-05-05 14:11 -7.55278 110.64978 24920 ft 491 kts 66°
2026-05-05 14:11 -7.53848 110.68114 25187 ft 492 kts 58°
2026-05-05 14:12 -7.51800 110.70866 25447 ft 490 kts 44°
2026-05-05 14:12 -7.49212 110.72998 25696 ft 487 kts 30°
2026-05-05 14:12 -7.46163 110.74451 25938 ft 483 kts 15°
2026-05-05 14:12 -7.42894 110.75139 26175 ft 479 kts
2026-05-05 14:13 -7.39571 110.75217 26418 ft 478 kts 356°
2026-05-05 14:13 -7.36234 110.75128 26650 ft 479 kts 355°
2026-05-05 14:13 -7.32887 110.75020 26875 ft 482 kts 356°
2026-05-05 14:13 -7.29523 110.75035 27090 ft 485 kts 360°
2026-05-05 14:14 -7.26172 110.75606 27285 ft 492 kts 14°
2026-05-05 14:14 -7.23017 110.76990 27478 ft 499 kts 28°
2026-05-05 14:14 -7.20265 110.79095 27666 ft 505 kts 42°
2026-05-05 14:14 -7.18022 110.81878 27933 ft 509 kts 56°
2026-05-05 14:15 -7.16443 110.85019 28211 ft 510 kts 66°
2026-05-05 14:15 -7.15296 110.88395 28496 ft 510 kts 72°
2026-05-05 14:15 -7.14334 110.91839 28784 ft 510 kts 74°
2026-05-05 14:15 -7.13386 110.95284 29069 ft 509 kts 73°
2026-05-05 14:16 -7.12408 110.98705 29352 ft 509 kts 73°
2026-05-05 14:16 -7.11404 111.02124 29632 ft 508 kts 72°
2026-05-05 14:16 -7.10387 111.05533 29907 ft 507 kts 72°
2026-05-05 14:16 -7.09361 111.08941 30179 ft 507 kts 72°
2026-05-05 14:17 -7.08338 111.12333 30444 ft 507 kts 72°
2026-05-05 14:17 -7.07311 111.15720 30708 ft 506 kts 72°
2026-05-05 14:17 -7.06291 111.19069 30967 ft 505 kts 72°
2026-05-05 14:17 -7.05257 111.22454 31228 ft 505 kts 72°
2026-05-05 14:18 -7.04224 111.25832 31488 ft 504 kts 72°
2026-05-05 14:18 -7.03180 111.29241 31744 ft 504 kts 72°
2026-05-05 14:18 -7.02160 111.32569 31994 ft 503 kts 72°
2026-05-05 14:18 -7.01130 111.35931 32236 ft 503 kts 72°
2026-05-05 14:19 -7.00040 111.39278 32474 ft 502 kts 69°
2026-05-05 14:19 -6.98709 111.42522 32708 ft 501 kts 64°
2026-05-05 14:19 -6.97087 111.45635 32892 ft 500 kts 59°
2026-05-05 14:19 -6.95301 111.48637 32897 ft 500 kts 57°
2026-05-05 14:20 -6.91629 111.54586 32904 ft 498 kts 57°
2026-05-05 14:20 -6.88014 111.60478 32905 ft 498 kts 57°
2026-05-05 14:21 -6.84372 111.66434 32905 ft 498 kts 57°
2026-05-05 14:21 -6.80739 111.72388 32905 ft 498 kts 57°
2026-05-05 14:22 -6.77115 111.78338 32906 ft 498 kts 57°
2026-05-05 14:22 -6.73512 111.84252 32905 ft 498 kts 57°
2026-05-05 14:23 -6.69890 111.90196 32905 ft 498 kts 57°
2026-05-05 14:23 -6.66258 111.96151 32905 ft 498 kts 57°
2026-05-05 14:24 -6.62642 112.02081 32905 ft 498 kts 57°
2026-05-05 14:24 -6.59010 112.08034 32905 ft 498 kts 57°
2026-05-05 14:25 -6.55372 112.13995 32905 ft 498 kts 57°
2026-05-05 14:25 -6.51763 112.19906 32905 ft 498 kts 57°
2026-05-05 14:26 -6.48132 112.25852 32905 ft 498 kts 57°
2026-05-05 14:26 -6.44505 112.31792 32905 ft 499 kts 57°
2026-05-05 14:27 -6.40866 112.37753 32905 ft 498 kts 57°
2026-05-05 14:27 -6.37260 112.43651 32905 ft 498 kts 57°
2026-05-05 14:28 -6.33616 112.49608 32905 ft 499 kts 57°
2026-05-05 14:28 -6.29979 112.55538 32904 ft 498 kts 56°
2026-05-05 14:29 -6.25761 112.61034 32906 ft 496 kts 46°
2026-05-05 14:29 -6.21008 112.66054 32905 ft 495 kts 44°
2026-05-05 14:30 -6.16233 112.71044 32905 ft 495 kts 44°
2026-05-05 14:30 -6.11466 112.76044 32905 ft 495 kts 44°
2026-05-05 14:31 -6.06704 112.81045 32905 ft 495 kts 44°
2026-05-05 14:31 -6.01973 112.86021 32905 ft 495 kts 44°
2026-05-05 14:32 -5.97221 112.91023 32905 ft 495 kts 44°
2026-05-05 14:32 -5.92464 112.96029 32905 ft 495 kts 44°
2026-05-05 14:33 -5.87706 113.01034 32905 ft 495 kts 44°
2026-05-05 14:33 -5.82950 113.06037 32906 ft 495 kts 44°
2026-05-05 14:34 -5.78191 113.11041 32905 ft 495 kts 44°
2026-05-05 14:34 -5.73428 113.16047 32906 ft 495 kts 44°
2026-05-05 14:35 -5.68673 113.21045 32905 ft 495 kts 44°
2026-05-05 14:35 -5.63946 113.26011 32905 ft 495 kts 44°
2026-05-05 14:36 -5.59187 113.31010 32905 ft 495 kts 44°
2026-05-05 14:36 -5.54426 113.36010 32905 ft 495 kts 44°
2026-05-05 14:37 -5.49674 113.41000 32905 ft 495 kts 44°
2026-05-05 14:37 -5.44910 113.46001 32905 ft 495 kts 44°
2026-05-05 14:38 -5.40155 113.50991 32905 ft 495 kts 44°
2026-05-05 14:38 -5.35393 113.55986 32905 ft 495 kts 44°
2026-05-05 14:39 -5.30620 113.60994 32905 ft 495 kts 44°
2026-05-05 14:39 -5.25897 113.65946 32905 ft 494 kts 44°
2026-05-05 14:40 -5.21126 113.70949 32905 ft 495 kts 44°
2026-05-05 14:40 -5.16366 113.75941 32906 ft 495 kts 44°
2026-05-05 14:41 -5.11605 113.80933 32905 ft 495 kts 44°
2026-05-05 14:41 -5.06845 113.85920 32905 ft 494 kts 44°
2026-05-05 14:42 -5.02899 113.90054 32905 ft 494 kts 44°
2026-05-05 14:42 -4.98125 113.95053 32905 ft 494 kts 44°
2026-05-05 14:43 -4.92959 113.99945 32905 ft 492 kts 37°
2026-05-05 14:44 -4.91258 114.01342 32905 ft 491 kts 36°
2026-05-05 14:45 -4.85880 114.05558 32905 ft 491 kts 36°
2026-05-05 14:45 -4.80505 114.09777 32905 ft 491 kts 36°
2026-05-05 14:46 -4.75144 114.14014 32905 ft 491 kts 36°
2026-05-05 14:46 -4.69263 114.17332 32605 ft 482 kts 13°
2026-05-05 14:47 -4.65972 114.17904 32356 ft 477 kts
2026-05-05 14:47 -4.62715 114.17784 32112 ft 474 kts 351°
2026-05-05 14:47 -4.59439 114.17478 31862 ft 474 kts 352°
2026-05-05 14:47 -4.56138 114.17156 31611 ft 475 kts 351°
2026-05-05 14:48 -4.52851 114.16835 31362 ft 475 kts 351°
2026-05-05 14:48 -4.49551 114.16513 31110 ft 476 kts 351°
2026-05-05 14:48 -4.46254 114.16193 30860 ft 476 kts 351°
2026-05-05 14:48 -4.44076 114.15981 30696 ft 477 kts 351°
2026-05-05 14:49 -4.40753 114.15658 30444 ft 477 kts 351°
2026-05-05 14:49 -4.36329 114.15229 30109 ft 478 kts 351°
2026-05-05 14:49 -4.34139 114.15016 29944 ft 478 kts 351°
2026-05-05 14:49 -4.30829 114.14696 29694 ft 479 kts 351°
2026-05-05 14:50 -4.27508 114.14374 29443 ft 479 kts 351°
2026-05-05 14:50 -4.24187 114.14052 29193 ft 480 kts 351°
2026-05-05 14:50 -4.20858 114.13729 28829 ft 478 kts 351°
2026-05-05 14:50 -4.17564 114.13410 27995 ft 474 kts 351°
2026-05-05 14:51 -4.14313 114.13095 26995 ft 474 kts 351°
2026-05-05 14:51 -4.11030 114.12798 25905 ft 475 kts 352°
2026-05-05 14:51 -4.07737 114.12527 24953 ft 473 kts 352°
2026-05-05 14:51 -4.04471 114.12256 24132 ft 467 kts 352°
2026-05-05 14:52 -4.01256 114.11989 23336 ft 461 kts 352°
2026-05-05 14:52 -3.98090 114.11725 22540 ft 455 kts 352°
2026-05-05 14:52 -3.95121 114.11477 21737 ft 446 kts 352°
2026-05-05 14:52 -3.91950 114.11212 20724 ft 437 kts 352°
2026-05-05 14:53 -3.88929 114.10960 20373 ft 435 kts 352°
2026-05-05 14:53 -3.85922 114.10635 19932 ft 432 kts 351°
2026-05-05 14:53 -3.82964 114.10385 19384 ft 418 kts 352°
2026-05-05 14:53 -3.80139 114.10173 19004 ft 398 kts 352°
2026-05-05 14:54 -3.77475 114.09967 18800 ft 376 kts 352°
2026-05-05 14:54 -3.74931 114.09766 18675 ft 355 kts 351°
2026-05-05 14:54 -3.72539 114.09573 18559 ft 335 kts 351°
2026-05-05 14:54 -3.70276 114.09389 18284 ft 322 kts 351°
2026-05-05 14:55 -3.68059 114.09207 17788 ft 317 kts 351°
2026-05-05 14:55 -3.65863 114.09025 17225 ft 315 kts 351°
2026-05-05 14:55 -3.63686 114.08845 16673 ft 312 kts 351°
2026-05-05 14:55 -3.61521 114.08665 16115 ft 313 kts 351°
2026-05-05 14:56 -3.59329 114.08483 15600 ft 315 kts 351°
2026-05-05 14:56 -3.57172 114.08303 15369 ft 307 kts 351°
2026-05-05 14:56 -3.55084 114.08128 15290 ft 293 kts 351°
2026-05-05 14:56 -3.53121 114.07964 15211 ft 281 kts 351°
2026-05-05 14:57 -3.51206 114.07804 15038 ft 272 kts 350°
2026-05-05 14:57 -3.49332 114.07648 14722 ft 269 kts 350°
2026-05-05 14:57 -3.47470 114.07492 14367 ft 268 kts 350°
2026-05-05 14:57 -3.45613 114.07337 14017 ft 266 kts 350°
2026-05-05 14:58 -3.43760 114.07244 13646 ft 270 kts
2026-05-05 14:58 -3.42011 114.07963 13242 ft 280 kts 35°
2026-05-05 14:58 -3.40867 114.09538 12861 ft 286 kts 68°
2026-05-05 14:58 -3.40678 114.11475 12480 ft 285 kts 99°
2026-05-05 14:59 -3.41496 114.13241 12094 ft 278 kts 133°
2026-05-05 14:59 -3.43036 114.14318 11737 ft 267 kts 160°
2026-05-05 14:59 -3.44804 114.14645 11347 ft 255 kts 191°
2026-05-05 14:59 -3.46355 114.13963 11070 ft 239 kts 226°
2026-05-05 15:00 -3.47114 114.12571 11013 ft 231 kts 262°
2026-05-05 15:00 -3.47067 114.11490 11019 ft 232 kts 282°
2026-05-05 15:00 -3.46155 114.09540 11016 ft 240 kts 304°
2026-05-05 15:00 -3.44741 114.08521 10770 ft 269 kts 338°
2026-05-05 15:01 -3.42821 114.08441 10525 ft 289 kts
2026-05-05 15:01 -3.41022 114.09411 10274 ft 303 kts 40°
2026-05-05 15:01 -3.39880 114.11188 10028 ft 309 kts 68°
2026-05-05 15:01 -3.39417 114.13292 9788 ft 310 kts 82°
2026-05-05 15:02 -3.39376 114.15446 9582 ft 307 kts 90°
2026-05-05 15:02 -3.39410 114.17582 9273 ft 307 kts 91°
2026-05-05 15:02 -3.39460 114.19685 8957 ft 304 kts 91°
2026-05-05 15:02 -3.39509 114.21789 8638 ft 301 kts 91°
2026-05-05 15:03 -3.39557 114.23874 8322 ft 298 kts 91°
2026-05-05 15:03 -3.39604 114.25972 8003 ft 297 kts 91°
2026-05-05 15:03 -3.39650 114.28037 7689 ft 296 kts 91°
2026-05-05 15:03 -3.39694 114.30065 7380 ft 295 kts 91°
2026-05-05 15:04 -3.39738 114.32117 7068 ft 293 kts 91°
2026-05-05 15:04 -3.39782 114.34154 6759 ft 292 kts 91°
2026-05-05 15:04 -3.39825 114.36212 6446 ft 290 kts 91°
2026-05-05 15:04 -3.39866 114.38188 6145 ft 287 kts 92°
2026-05-05 15:05 -3.39948 114.42118 5547 ft 277 kts 93°
2026-05-05 15:05 -3.39989 114.44029 5257 ft 271 kts 94°
2026-05-05 15:05 -3.40029 114.45895 4973 ft 266 kts 94°
2026-05-05 15:06 -3.40066 114.47638 4707 ft 261 kts 93°
2026-05-05 15:06 -3.40106 114.49527 4419 ft 255 kts 93°
2026-05-05 15:06 -3.40143 114.51259 4156 ft 250 kts 92°
2026-05-05 15:06 -3.40221 114.52981 3917 ft 243 kts 95°
2026-05-05 15:07 -3.40377 114.54631 3665 ft 234 kts 96°
2026-05-05 15:07 -3.40544 114.56223 3407 ft 227 kts 96°
2026-05-05 15:07 -3.40691 114.57778 3160 ft 220 kts 95°
2026-05-05 15:07 -3.40858 114.59270 2996 ft 209 kts 98°
2026-05-05 15:08 -3.41114 114.60655 2951 ft 196 kts 101°
2026-05-05 15:08 -3.41379 114.61960 2735 ft 188 kts 101°
2026-05-05 15:08 -3.41633 114.63220 2483 ft 180 kts 101°
2026-05-05 15:08 -3.41873 114.64417 2262 ft 173 kts 101°
2026-05-05 15:09 -3.42104 114.65570 2018 ft 163 kts 101°
2026-05-05 15:09 -3.42322 114.66660 1828 ft 156 kts 101°
2026-05-05 15:09 -3.42534 114.67716 1618 ft 154 kts 101°
2026-05-05 15:09 -3.42743 114.68760 1409 ft 152 kts 101°
2026-05-05 15:10 -3.42949 114.69786 1212 ft 153 kts 101°
2026-05-05 15:10 -3.43191 114.70832 987 ft 155 kts 103°
2026-05-05 15:10 -3.43436 114.71884 716 ft 154 kts 101°
2026-05-05 15:10 -3.43635 114.72923 514 ft 151 kts 100°
2026-05-05 15:11 -3.43811 114.73947 328 ft 146 kts 99°
2026-05-05 15:11 -3.43987 114.74935 149 ft 140 kts 99°
2026-05-05 15:11 -3.44153 114.75849 74 ft 119 kts 100°
2026-05-05 15:11 -3.44255 114.76395 74 ft 49 kts 101°
2026-05-05 15:12 -3.44308 114.76681 74 ft 38 kts 101°
2026-05-05 15:12 -3.44350 114.76913 74 ft 31 kts 99°
2026-05-05 15:12 -3.44364 114.77069 74 ft 11 kts 71°
2026-05-05 15:12 -3.44362 114.77122 74 ft 6 kts 160°
2026-05-05 15:13 -3.44380 114.77097 74 ft 6 kts 270°
2026-05-05 15:13 -3.44371 114.77034 74 ft 14 kts 280°
2026-05-05 15:13 -3.44347 114.76907 74 ft 23 kts 280°
2026-05-05 15:13 -3.44315 114.76732 74 ft 29 kts 280°
2026-05-05 15:14 -3.44277 114.76516 74 ft 34 kts 280°
2026-05-05 15:14 -3.44234 114.76285 74 ft 33 kts 280°
2026-05-05 15:14 -3.44192 114.76047 74 ft 36 kts 280°
2026-05-05 15:14 -3.44161 114.75876 74 ft 18 kts 281°
2026-05-05 15:15 -3.44136 114.75743 74 ft 16 kts 281°
2026-05-05 15:15 -3.44107 114.75689 74 ft 7 kts 353°
2026-05-05 15:15 -3.44060 114.75696 74 ft 9 kts 11°
2026-05-05 15:15 -3.43979 114.75712 74 ft 12 kts 10°
2026-05-05 15:16 -3.43916 114.75723 74 ft 4 kts 10°
2026-05-05 15:16 -3.43905 114.75747 74 ft 6 kts 95°
2026-05-05 15:16 -3.43910 114.75783 74 ft 0 kts 99°
2026-05-05 15:16 -3.43909 114.75787 74 ft 2 kts 76°
2026-05-05 15:17 -3.43876 114.75805 74 ft 6 kts
2026-05-05 15:17 -3.43846 114.75809 74 ft 5 kts 11°
2026-05-05 15:17 -3.43816 114.75815 74 ft 2 kts 11°
2026-05-05 15:17 -3.43815 114.75815 74 ft 0 kts 11°